Погода в Касуре

Пакистан     31°07′00″N   74°27′27″E
темп.,
°C
ветер,
м/с
пор.,
м/с
влажн.,
%
обл.,
%
осадки,
мм/ч
давл.,
гПа
погр.,
м
26 февраля, пт
пт2623:00+19в12260 0.0 100823
02:00+16вюв23320 0.0 100623
05:00+16вюв23330 0.0 100523
08:00+20юв22280 0.0 100782
11:00+31ююз45140 0.0 10061190
14:00+34юз46110 0.0 10023310
17:00+33юз36130 0.0 10012237
20:00+23з352734 0.0 100386
27 февраля, сб
сб2723:00+21ссв223163 0.0 100424
02:00+18юз233731 0.0 100323
05:00+15ссз224415 0.0 100323
08:00+18св22250 0.0 1005120
11:00+28ююв34130 0.0 1005978
14:00+31юз7980 0.0 10032655
17:00+29з5770 0.0 10021625
20:00+18зсз34190 0.0 100526
28 февраля, вс
вс2823:00+16с23310 0.0 100723
02:00+12ююв12400 0.0 100723
05:00+12св22380 0.0 100723
08:00+17вюв22210 0.0 100972
11:00+28юв2290 0.0 1009907
14:00+31ю3350 0.0 10063096
17:00+29юз2250 0.0 100578
20:00+18ююз22100 0.0 100723
1 марта, пн
пн123:00+15с22150 0.0 100923
02:00+13св12160 0.0 100823
05:00+11с12250 0.0 100823
08:00+17зсз23180 0.0 1011103
11:00+29сз46110 0.0 1011871
14:00+32сз4470 0.0 10093405
17:00+30сз3470 0.0 10091542
20:00+19зсз34140 0.0 101231
2 марта, вт
вт223:00+16сз34190 0.0 101329
02:00+15ссз34270 0.0 101337
05:00+13ссз23320 0.0 101223
08:00+17зсз34270 0.0 1013123
11:00+29зсз44130 0.0 10131137
14:00+33сз4570 0.0 10092338
17:00+31сз4580 0.0 10082312
20:00+20зсз23150 0.0 101023